Location: Appeville
(49.3218°N, 1.3427°W)
Time: 07:34:00
(UTC+00:00)

Feng Yun 1-1 Rocket - Pass Details

Date: 08 December 2019
Orbit: 830 x 933 km, 99.2° (Epoch: 24 January)

Event Time Altitude Azimuth Distance (km) Brightness Sun altitude
Rises 06:49:33 0° 15° (NNE) 3,426 7.3 -9.0°
Reaches altitude 10° 06:51:54 10° 14° (NNE) 2,498 6.6 -8.6°
Maximum altitude 06:57:28 84° 288° (WNW) 883 4.3 -7.8°
Drops below altitude 10° 07:03:08 10° 201° (SSW) 2,549 6.8 -7.0°
Sets 07:05:33 0° 200° (SSW) 3,500 7.5 -6.6°
